Regional Weather Roundup
Issued by NWS Green Bay, WI

Home | Current Version | Previous Version | Graphics & Text | Print | Product List | Glossary On
Versions: 1 2 3 4 5 6 7 8 9 10 11 12 13 14 15 16 17 18 19 20 21 22 23 24 25 26 27 28 29 30 31 32 33 34 35 36 37 38 39 40 41 42 43 44 45 46 47 48 49 50
000
ASUS43 KGRB 101659
RWRGRB

NORTH-CENTRAL AND NORTHEAST WISCONSIN REGIONAL WEATHER ROUNDUP
NATIONAL WEATHER SERVICE GREEN BAY WI
1200 PM CDT THU JUL 10 2014

WIZ005-009-010>012-018-019-101800-
NORTH CENTRAL WISCONSIN

CITY           SKY/WX    TMP DP  RH WIND       PRES   REMARKS
IRONWOOD       NOT AVBL
MANITOWISH WTR NOT AVBL
ARBOR VITAE    NOT AVBL
EAGLE RIVER    NOT AVBL
LAND O LAKES   NOT AVBL
RHINELANDER    MOSUNNY   71  54  54 SW10      30.16S
PHILLIPS       NOT AVBL
ANTIGO         NOT AVBL
TOMAHAWK       NOT AVBL
MERRILL        NOT AVBL
$$

WIZ013-073-101800-
NORTHEAST WISCONSIN

CITY           SKY/WX    TMP DP  RH WIND       PRES   REMARKS
IRON MOUNTAIN  SUNNY     72  46  39 CALM      30.14F
MARINETTE      SUNNY     70  54  56 S10       30.16S
$$

WIZ017-030-035>037-045-101800-
CENTRAL WISCONSIN

CITY           SKY/WX    TMP DP  RH WIND       PRES   REMARKS
MEDFORD        NOT AVBL
WAUSAU         MOSUNNY   74  53  48 S8        30.14S
MOSINEE        NOT AVBL
MARSHFIELD     SUNNY     74  57  55 S13       30.13F
WISC RAPIDS    PTSUNNY   77  55  46 SW12      30.15S
STEVENS POINT  NOT AVBL
WAUPACA        NOT AVBL
SHAWANO        NOT AVBL
CLINTONVILLE   NOT AVBL
$$

WIZ038-039-048-051-101800-
FOX VALLEY

CITY           SKY/WX    TMP DP  RH WIND       PRES   REMARKS
NWS GREEN BAY  MOSUNNY   74  53  48 SW9       30.17S
APPLETON       MOSUNNY   72  52  49 VRB6      30.18R
OSHKOSH        SUNNY     74  54  49 E5        30.17S
FOND DU LAC    MOSUNNY   74  53  48 SW8       30.17S
$$

WIZ022-050-052-101800-
EAST CENTRAL WISCONSIN

CITY           SKY/WX    TMP DP  RH WIND       PRES   REMARKS
STURGEON BAY   SUNNY     66  55  68 SE10      30.19S
MANITOWOC      NOT AVBL
SHEBOYGAN        N/A    N/A N/A N/A MISG      30.20R
$$

LMZ563-521-522-541>543-101800-
LAKESHORE

STATION/POSITION TIME  TEMP    WIND        PRES    VSBY  WAVE
                       AIR SEA DIR/SP/G                  HT/PER
                 (UTC) (F)     (DEG/KT/KT) (MB)    (MI)  (FT/S)
SHEBOYGAN LKSHOR 1600   58     130/  6/  7 1022.8R
KEWAUNEE LKSHORE 1600   53     170/  5/  6 1023.1R
NORTHPORT PIER   1600   62     140/  9/ 12 1021.7S
N MID LAKE BUOY  1600   55 54  190/  8/ 10 1022.1R         0
STURGEON BAY CG  1600   55 59  180/  4       N/A           1
MENOMINEE LKSHOR 1600   65     140/  9/ 11 1022.1F
$$



USA.gov is the U.S. government's official web portal to all federal, state and local government web resources and services.